Location: Copenhagen
(55.6670°N, 12.5830°E)
Time: 06:15:14
(UTC+02:00)

ACS3 Solar Sail - Pass Details

Date: 28 September 2024
Orbit: 959 x 1034 km, 97.5° (Epoch: 14 October)

Event Time Altitude Azimuth Distance (km) Brightness Sun altitude
Rises 18:25:46 0° 98° (E) 3,790 4.2 2.8°
Reaches altitude 10° 18:29:17 10° 78° (ENE) 2,840 3.6 2.3°
Drops below altitude 10° 18:36:42 10° 7° (N) 2,834 4.1 1.3°
Enters shadow 19:45:06 -49° 153° (SSE) 10,930 7.0 -8.3°
Maximum altitude 20:15:34 52° 65° (ENE) 1,276 2.1 -12.5°
